STARLINK-3798, 52371

Orbit data source: Space-Track

STARLINK-3798, 52371 is a payload satellite owned by SpaceX/Seattle (US) in LEO that was launched on Fri, 29 Apr 2022 UTC via an FALCON 9 launch vehicle from the Air Force Eastern Test Range (AFETR). Payload-class satellites include a variety of spacecraft equipped with specific instruments for various scientific and technological missions. These include communications satellites like Starlink; space stations such as the ISS; scientific satellites like the Hubble; Earth observation satellites from companies like Planet Labs, Umbra, and HawkEye 360; GPS; miniature CubeSats for education and research; and military/defense satellites.

Loading next visibility...
Identifier
52371, 2022-045AS
Orbit
LEO
Country
Flag of USUS
Related business
Manufacturer
SpaceX/Seattle
Mission
Operational Commercial Communications
Bus & Motor
STARLINK, Unknown motor
Mass
297 kg wet, ~275 kg dry
Launch date (UTC)
2022-04-29 (4 years ago)
Launch vehicle
FALCON 9
Launch site
Air Force Eastern Test Range (AFETR)
Object type
Payload
Rocket body
Debris
Shape & HBR
Box + 1 Pan, 10.1 m
Radar Cross Section
11.087 m², Large (>1 m²)

Expand to show TLE details & history
Last TLE update: 22 hours ago

TLE from 22 hours ago
0 STARLINK-3798
1 52371U 22045AS  25350.04063832  .00000100  00000-0  24390-4 0  9995
2 52371  53.2156 204.6442 0001493  91.9228 268.1935 15.08837037203283
Epoch: 2025-12-16T00:58Z
TLE epoch observation values (Epoch: 2025-12-16T00:58:31.150Z)
Latitude
-0.00005°
Longitude
105.08381°
Altitude
540.682 km
Speed
7.593 km/s
True Right ascension
13h 38m 34s
True Declination
0° 00' 00"
Sunlit
Object was in daylight at epoch
Visualization orbit readout
Latitude
Unknown
Longitude
Unknown
Altitude
Unknown
Speed
Unknown
Apparent Right ascension
Unknown
Apparent Declination
Unknown
Sunlit
N/A
Visualization observer readout
Local Sidereal Time
21:11:23
Azimuth
Unknown
Elevation
Unknown
Doppler factor
Unknown
Orbital elements
Apogee altitude
541.031 km
Perigee altitude
538.965 km
Semi-major axis
6,918.135 km
Eccentricity
0.00015
Inclination
53.2156°
RAAN
204.6442°
Arg. of periapsis
91.9228°
True anomaly
268.1764°
Mean anomaly
268.1935°
Eccentric anomaly
268.18495°
Mean motion
3.7719 °/min
Orbital period
95.44 mins
BSTAR
0.00002439
Loading maneuver chart data...
Computing Atmospheric mass density...
Loading historical data...
Loading historical data...
Loading historical data...
Loading historical data...
Loading historical data...
Loading historical data...
Loading historical data...

Documentation

Showing up to 5 results
|